[[{"header":{"parameterUnit":"m.s-1","parameterCategory":1,"la1":30.2991,"la2":30.254,"lo1":-89.0895,"lo2":-89.0444,"dy":0.0017,"dx":0.0017,"nx":28,"ny":28,"refTime":"2023-08-09T09:00:00:Z","depth":0,"parameterNumber":2,"parameterNumberName":"U-component_of_WINDS"},"data":[0,0,0,0,0,0,0,0,0,0,0,0,0,0,0,0,0,0,0,0,0,0,0,0,0,0,0,0,0,0,0,0,0,0,0,0,0,0,0,0,0,0,0,0,0,0,0,0,0,0,0,0,0,0,0,0,0,0,5.7232,5.7233,0,5.7356,5.7357,5.7359,5.734,5.7338,5.7336,5.7334,5.746,5.7465,5.7471,0,0,0,0,0,0,0,0,0,0,0,0,0,5.698,5.6984,5.7232,5.7234,5.7235,5.7356,5.7357,5.7359,5.734,5.7338,5.7335,5.7333,5.7458,5.7465,5.7471,0,0,0,0,0,0,0,0,0,0,0,0,0,5.7095,5.6986,5.7232,5.724,5.7242,5.7355,5.7357,5.736,5.7341,5.7338,5.7335,5.7332,5.7456,5.7464,5.7472,5.7584,0,0,5.7496,5.75,0,0,0,0,0,0,0,0,5.7088,5.7104,5.7238,5.724,5.7242,5.7329,5.7315,5.7435,5.7342,5.7304,5.7334,5.733,5.7419,5.743,5.746,5.759,5.7596,5.7497,5.7502,5.7505,5.7508,0,0,0,0,0,0,0,5.708,5.7099,5.7281,5.7239,5.7243,5.7238,5.7251,5.7337,5.7377,5.7307,5.7306,5.732,5.742,5.7453,5.7463,5.7597,5.7497,5.7504,5.7509,5.7512,5.7827,5.783,0,0,0,0,0,0,5.707,5.7092,5.7277,5.7285,5.7156,5.7245,5.726,5.7305,5.7376,5.7384,5.7323,5.7319,5.744,5.7454,5.7467,5.7604,5.7505,5.7513,5.7517,5.7823,5.7827,5.7831,0,0,0,0,0,0,5.7065,5.7087,5.7272,5.7188,5.7212,5.7253,5.7304,5.7309,5.7341,5.7389,5.7396,5.7349,5.7438,5.7456,5.7556,5.7608,5.7516,5.7524,5.7819,5.7824,5.7829,5.7878,0,0,0,0,0,0,5.7058,5.7085,5.7128,5.7189,5.7216,5.7358,5.7307,5.7313,5.7355,5.7351,5.7415,5.7423,5.7437,5.7544,5.7563,5.7617,5.753,5.7814,5.7821,5.7828,5.7872,5.7884,5.7895,0,0,0,0,0,5.7049,5.7136,5.713,5.7153,5.7271,5.7361,5.7377,5.7392,5.7359,5.7403,5.7434,5.7421,5.7599,5.7554,5.7576,5.7633,5.7811,5.7819,5.7827,5.7866,5.7882,5.7894,0,0,0,0,0,0,5.7079,5.7145,5.7138,5.7249,5.73,5.7358,5.7413,5.7407,5.7469,5.7462,5.7478,5.7493,5.7594,5.7623,5.7572,5.7746,5.7701,5.7713,5.7723,5.7738,5.7749,5.774,5.7537,0,0,0,0,0,5.7099,5.7167,5.7221,5.7313,5.7339,5.7372,5.7412,5.7419,5.7473,5.7494,5.7532,5.7584,5.7652,5.7697,5.7762,5.7876,5.789,5.7926,5.7938,5.7947,5.7958,5.8021,5.8038,5.7858,5.7857,5.7857,0,0,5.714,5.7184,5.7226,5.732,5.736,5.7431,5.739,5.7466,5.7519,5.7506,5.7602,5.7632,5.7691,5.7799,5.7848,5.7826,5.8011,5.7957,5.7964,5.797,5.8031,5.8048,5.8063,5.7863,5.7862,5.7861,0,0,5.7252,5.7292,5.7373,5.7415,5.7477,5.7498,5.7518,5.7578,5.7597,5.7694,5.7686,5.7749,5.7865,5.7908,5.7945,5.8074,5.8064,5.8095,5.8155,5.8216,5.8231,5.8243,5.8289,5.8306,5.8105,5.8106,5.8106,0,5.7295,5.7401,5.7416,5.7493,5.7535,5.7527,5.761,5.7649,5.7729,5.7758,5.7733,5.788,5.7919,5.8037,5.8068,5.8099,5.8122,5.8087,5.8227,5.824,5.8252,5.8296,5.8314,5.8109,5.8109,5.8108,5.8108,0,5.7452,5.7525,5.7584,5.7662,5.771,5.779,5.7817,5.7864,5.7867,5.7892,5.7991,5.8038,5.8113,5.8141,5.8145,5.826,5.8245,5.8224,5.8178,5.8272,5.8314,5.8331,5.8114,5.8112,5.8111,5.8111,0,0,5.7585,5.7671,5.7692,5.7728,5.7796,5.7853,5.7933,5.8007,5.8047,5.8102,5.817,5.8269,5.825,5.8292,5.8301,5.8355,5.8454,5.8327,5.8328,5.8349,5.8584,5.8599,5.8619,5.8448,5.8451,5.8454,5.8579,0,5.7703,5.7844,5.786,5.7986,5.8054,5.8048,5.8118,5.8167,5.8192,5.8254,5.8281,5.8352,5.8321,5.8347,5.84,5.8431,5.8501,5.8422,5.8511,5.8514,5.8496,5.864,5.8657,5.8772,5.8595,5.8598,5.86,0,5.786,5.792,5.8053,5.8112,5.8142,5.8204,5.8273,5.8332,5.8388,5.8403,5.845,5.8452,5.8534,5.8486,5.86,5.8546,5.8583,5.8604,5.8609,5.8617,5.8562,5.8653,5.881,5.8827,5.8626,5.8624,5.8622,0,5.7944,5.8059,5.8154,5.8184,5.8256,5.83,5.8331,5.8384,5.8428,5.8488,5.8517,5.8586,5.8623,5.8677,5.8697,5.866,5.881,5.8763,5.8825,5.8824,5.8856,5.8854,5.9021,5.8881,5.888,5.888,5.888,0,5.8075,5.8156,5.8193,5.8251,5.8342,5.836,5.845,5.8479,5.8527,5.8591,5.8589,5.8649,5.8673,5.8736,5.8753,5.8845,5.8862,5.8876,5.8879,5.8876,5.8874,5.8901,5.8893,5.8885,5.8884,5.8883,5.8882,0,5.8184,5.8212,5.8315,5.8374,5.8391,5.8456,5.8507,5.8563,5.8588,5.8668,5.8688,5.8727,5.8802,5.8828,5.8919,5.893,5.9037,5.9033,5.9018,5.9019,5.9078,5.9072,5.9268,5.9295,5.9137,5.9138,5.9139,0,5.8266,5.8328,5.8395,5.8438,5.8472,5.854,5.8585,5.8605,5.8651,5.872,5.8768,5.8843,5.8904,5.9024,5.906,5.9129,5.9127,5.9191,5.9138,5.9133,5.9129,5.9125,5.9131,5.9201,5.9203,5.9204,5.9205,0,5.8407,5.8418,5.8482,5.8552,5.8605,5.8661,5.8715,5.875,5.8778,5.883,5.8907,5.8954,5.9047,5.9121,5.9193,5.9225,5.922,5.9222,5.924,5.9237,5.9225,5.9233,5.9045,5.9217,5.9216,5.9215,5.9214,5.9214,5.8506,5.8561,5.8617,5.8689,5.8732,5.8782,5.8838,5.887,5.8934,5.9012,5.902,5.9103,5.9158,5.9253,5.9289,5.9354,5.9336,5.9362,5.9369,5.9375,5.9379,5.9215,5.9367,5.9367,5.9366,5.9366,5.9366,0,5.8647,5.8683,5.8749,5.8825,5.8881,5.8872,5.8931,5.8979,5.9052,5.9104,5.9164,5.9253,5.9325,5.9366,5.9439,5.9483,5.9482,5.9501,5.9498,5.9505,5.9391,5.9368,5.95,5.95,5.95,5.95,5.95,5.95,5.8728,5.8821,5.8839,5.8954,5.8989,5.9071,5.9105,5.9152,5.9193,5.9292,5.9352,5.9379,5.9427,5.9503,5.9569,5.9579,5.9606,5.9626,5.9635,5.9527,5.9513,5.95,5.9479,5.9632,5.9632,5.9744,5.9745,5.9746]},{"header":{"parameterUnit":"m.s-1","parameterCategory":1,"la1":30.2991,"la2":30.254,"lo1":-89.0895,"lo2":-89.0444,"dy":0.0017,"dx":0.0017,"nx":28,"ny":28,"refTime":"2023-08-09T09:00:00:Z","depth":0,"parameterNumber":3,"parameterNumberName":"V-component_of_WINDS"},"data":[0,0,0,0,0,0,0,0,0,0,0,0,0,0,0,0,0,0,0,0,0,0,0,0,0,0,0,0,0,0,0,0,0,0,0,0,0,0,0,0,0,0,0,0,0,0,0,0,0,0,0,0,0,0,0,0,0,0,2.0837,2.0837,0,2.0811,2.081,2.081,2.0815,2.0815,2.0816,2.0816,2.0785,2.0784,2.0783,0,0,0,0,0,0,0,0,0,0,0,0,0,2.0886,2.0885,2.0837,2.0836,2.0836,2.0811,2.081,2.081,2.0815,2.0815,2.0816,2.0817,2.0786,2.0784,2.0783,0,0,0,0,0,0,0,0,0,0,0,0,0,2.0863,2.0885,2.0837,2.0836,2.0835,2.0811,2.081,2.081,2.0815,2.0815,2.0816,2.0817,2.0786,2.0784,2.0783,2.0756,0,0,2.0777,2.0776,0,0,0,0,0,0,0,0,2.0864,2.0861,2.0836,2.0836,2.0835,2.0817,2.0816,2.0792,2.0815,2.0822,2.0816,2.0817,2.0795,2.0792,2.0786,2.0755,2.0754,2.0777,2.0775,2.0775,2.0774,0,0,0,0,0,0,0,2.0866,2.0862,2.0826,2.0836,2.0835,2.0835,2.0832,2.0812,2.0805,2.0822,2.0822,2.0819,2.0795,2.0788,2.0785,2.0753,2.0777,2.0775,2.0774,2.0773,2.0697,2.0696,0,0,0,0,0,0,2.0868,2.0863,2.0827,2.0826,2.0852,2.0833,2.0831,2.0822,2.0805,2.0803,2.0819,2.0819,2.0791,2.0787,2.0784,2.075,2.0775,2.0773,2.0772,2.0698,2.0696,2.0696,0,0,0,0,0,0,2.0869,2.0865,2.0828,2.0845,2.084,2.0832,2.0822,2.0821,2.0814,2.0803,2.0801,2.0813,2.0791,2.0787,2.0763,2.0749,2.0772,2.077,2.0699,2.0697,2.0696,2.0684,0,0,0,0,0,0,2.0871,2.0866,2.0857,2.0844,2.0839,2.0809,2.0821,2.082,2.0811,2.0812,2.0797,2.0795,2.0791,2.0766,2.0761,2.0747,2.0769,2.07,2.0698,2.0696,2.0686,2.0683,2.068,0,0,0,0,0,2.0873,2.0854,2.0856,2.0852,2.0828,2.0808,2.0805,2.0802,2.081,2.08,2.0793,2.0795,2.0752,2.0763,2.0758,2.0743,2.0701,2.0698,2.0697,2.0687,2.0683,2.068,0,0,0,0,0,0,2.0864,2.0852,2.0855,2.0832,2.0821,2.0809,2.0797,2.0799,2.0785,2.0786,2.0782,2.0778,2.0754,2.0746,2.0759,2.0716,2.0727,2.0724,2.0721,2.0718,2.0715,2.0716,2.0767,0,0,0,0,0,2.0859,2.0846,2.0836,2.0817,2.0811,2.0805,2.0796,2.0795,2.0783,2.0778,2.0769,2.0756,2.0739,2.0729,2.0713,2.0685,2.068,2.0672,2.0669,2.0667,2.0664,2.0646,2.0642,2.0689,2.0689,2.0689,0,0,2.0849,2.0842,2.0833,2.0815,2.0806,2.079,2.0801,2.0784,2.0772,2.0775,2.0752,2.0745,2.073,2.0704,2.0692,2.0697,2.065,2.0664,2.0663,2.0661,2.0644,2.0639,2.0635,2.0688,2.0688,2.0688,0,0,2.0823,2.0817,2.0799,2.0791,2.0778,2.0774,2.077,2.0757,2.0753,2.073,2.0732,2.0716,2.0688,2.0677,2.0667,2.0636,2.0637,2.0631,2.0615,2.0598,2.0594,2.0591,2.0577,2.0573,2.0628,2.0628,2.0628,0,2.0812,2.079,2.079,2.0772,2.0763,2.0767,2.0747,2.0739,2.0721,2.0714,2.072,2.0684,2.0674,2.0644,2.0637,2.063,2.0623,2.0632,2.0595,2.0592,2.0588,2.0575,2.057,2.0627,2.0627,2.0627,2.0627,0,2.0776,2.076,2.0747,2.0731,2.0721,2.0703,2.0697,2.0687,2.0686,2.0681,2.0656,2.0644,2.0625,2.0618,2.0618,2.0587,2.0591,2.0596,2.0607,2.0583,2.0571,2.0566,2.0626,2.0626,2.0626,2.0627,0,0,2.0743,2.0727,2.0722,2.0713,2.07,2.0686,2.0668,2.065,2.064,2.0627,2.061,2.0586,2.059,2.0579,2.0577,2.0562,2.0535,2.0569,2.0569,2.0561,2.0498,2.0493,2.0487,2.0537,2.0536,2.0535,2.0499,0,2.0714,2.0682,2.0681,2.0651,2.0635,2.0638,2.0621,2.061,2.0604,2.0588,2.0581,2.0563,2.0572,2.0565,2.0551,2.0542,2.0522,2.0545,2.0518,2.0517,2.0519,2.0481,2.0476,2.0442,2.0494,2.0493,2.0493,0,2.0676,2.0663,2.0632,2.0619,2.0612,2.0597,2.058,2.0566,2.0552,2.0549,2.0536,2.0536,2.0514,2.0527,2.0496,2.0511,2.05,2.0493,2.0492,2.0488,2.0502,2.0474,2.0432,2.0426,2.0486,2.0486,2.0487,0,2.0652,2.0627,2.0605,2.0598,2.0583,2.0572,2.0564,2.0552,2.0541,2.0525,2.0518,2.05,2.0489,2.0474,2.0468,2.0478,2.0436,2.0449,2.043,2.043,2.0419,2.042,2.0373,2.0416,2.0416,2.0416,2.0416,0,2.0619,2.0599,2.0593,2.0579,2.0557,2.0555,2.0531,2.0525,2.0513,2.0496,2.0498,2.0481,2.0475,2.0457,2.0452,2.0425,2.0421,2.0416,2.0414,2.0414,2.0415,2.0406,2.0407,2.0415,2.0415,2.0415,2.0415,0,2.0587,2.0584,2.0559,2.0547,2.0543,2.0527,2.0515,2.05,2.0495,2.0474,2.0468,2.0459,2.0438,2.043,2.0405,2.0401,2.0369,2.0371,2.0374,2.0373,2.0354,2.0355,2.0297,2.0289,2.034,2.0339,2.0339,0,2.0566,2.055,2.0537,2.0526,2.0519,2.0502,2.0491,2.0488,2.0476,2.0458,2.0445,2.0425,2.0408,2.0373,2.0363,2.0342,2.0342,2.0323,2.0338,2.0338,2.0338,2.0338,2.0336,2.0319,2.0319,2.0319,2.0318,0,2.0526,2.0525,2.051,2.0493,2.048,2.0467,2.0454,2.0445,2.0439,2.0425,2.0405,2.0392,2.0365,2.0343,2.0323,2.0313,2.0313,2.0314,2.0308,2.0307,2.0308,2.0305,2.0364,2.0315,2.0315,2.0315,2.0315,2.0315,2.0497,2.0483,2.0471,2.0454,2.0444,2.0431,2.0417,2.041,2.0393,2.0372,2.0371,2.0347,2.0331,2.0304,2.0293,2.0273,2.0278,2.027,2.0267,2.0265,2.0262,2.0313,2.0269,2.0269,2.0269,2.0269,2.027,0,2.0456,2.0448,2.0432,2.0415,2.04,2.0404,2.039,2.0377,2.0357,2.0343,2.0327,2.0301,2.028,2.0268,2.0246,2.0232,2.0231,2.0226,2.0226,2.0223,2.026,2.0267,2.0227,2.0227,2.0227,2.0227,2.0227,2.0227,2.0432,2.0408,2.0405,2.0376,2.0368,2.0346,2.0337,2.0324,2.0313,2.0285,2.0268,2.0261,2.0247,2.0224,2.0204,2.0201,2.0191,2.0185,2.0182,2.0216,2.0221,2.0225,2.0231,2.0184,2.0184,2.0146,2.0145,2.0145]}]]